Chicago, IL

7:20 PM CST on January 21, 2018 (GMT -0600)
Chicago-O'Hare International

Weather History for KORD - July, 2013

Change the Weather History Date:

Friday, July 19, 2013

  Actual Average Record
Temperature  
Mean Temperature 84 °F 74 °F  
Max Temperature 96 °F 84 °F 101 °F (1930)
Min Temperature 71 °F 64 °F 50 °F (1873)
Degree Days  
Heating Degree Days 0 0  
Month to date heating degree days 1 0  
Since 1 June heating degree days 44 48  
Since 1 July heating degree days 1 0  
Cooling Degree Days 19 9  
Month to date cooling degree days 207 170  
Year to date cooling degree days 447 389  
Since 1 June cooling degree days 363 335  
Growing Degree Days 34 (Base 50)    
Moisture  
Dew Point 70 °F    
Average Humidity 58    
Maximum Humidity 79    
Minimum Humidity 36    
Precipitation  
Precipitation 0.58 in 0.11 in 1.96 in (1963)
Month to date precipitation 1.19 2.11  
Year to date precipitation 29.65 18.64  
Snow  
Snow 0.00 in 0.00 in 0.00 in ()
Month to date snowfall 0.0 0.0  
Since 1 June snowfall 0.0 0.0  
Since 1 July snowfall 0.0 0.0  
Snow Depth 0.00 in    
Sea Level Pressure  
Sea Level Pressure 29.83 in    
Wind  
Wind Speed 14 mph (WSW)    
Max Wind Speed 39 mph    
Max Gust Speed 55 mph    
Visibility 9 miles    
Events Rain , Thunderstorm    
T = Trace of Precipitation, MM = Missing Value Source: NWS Daily Summary

Daily Weather History Graph

Daily Weather History Graph

Search for Another Location

Airport or City:

Trip Planner

Search our weather history database for the weather conditions in past years. The results will help you decide how hot, cold, wet, or windy it might be!

Date:

Astronomy

Jul. 19, 2013 Rise Set
Actual Time 5:32 AM CDT 8:22 PM CDT
Civil Twilight 5:00 AM CDT 8:55 PM CDT
Nautical Twilight 4:18 AM CDT 9:36 PM CDT
Astronomical Twilight 3:30 AM CDT 10:24 PM CDT
Moon 5:24 PM CDT (7/19) 2:14 AM CDT (7/19)
Length of Visible Light 15h 55m
Length of Day
14h 49m
Waxing Gibbous, 87% of the Moon is Illuminated
Jul 19
Waxing Gibbous
Jul 22
Full
Jul 29
Last Quarter
Aug 6
New
Aug 14
First Quarter

Hourly Weather History & Observations

Time (CDT) Temp. Heat Index Dew Point Humidity Pressure Visibility Wind Dir Wind Speed Gust Speed Precip Events Conditions
12:51 AM 81.0 °F 85.8 °F 73.0 °F 77% 29.93 in 10.0 mi SSW 9.2 mph - N/A   Clear
1:51 AM 80.1 °F 84.2 °F 73.0 °F 79% 29.91 in 10.0 mi SW 10.4 mph - N/A   Clear
2:51 AM 79.0 °F - 72.0 °F 79% 29.89 in 10.0 mi SW 6.9 mph - N/A   Clear
3:51 AM 79.0 °F - 72.0 °F 79% 29.88 in 10.0 mi SW 8.1 mph - N/A   Clear
4:51 AM 80.1 °F 83.6 °F 71.1 °F 74% 29.87 in 10.0 mi SW 10.4 mph - N/A   Clear
5:51 AM 81.0 °F 84.9 °F 71.1 °F 72% 29.87 in 10.0 mi WSW 10.4 mph - N/A   Clear
6:51 AM 81.0 °F 84.9 °F 71.1 °F 72% 29.88 in 10.0 mi WSW 11.5 mph - N/A   Clear
7:51 AM 82.9 °F 88.0 °F 72.0 °F 69% 29.88 in 10.0 mi WSW 11.5 mph 20.7 mph N/A   Clear
8:51 AM 84.9 °F 90.1 °F 71.1 °F 63% 29.88 in 10.0 mi SW 15.0 mph 20.7 mph N/A   Partly Cloudy
9:51 AM 89.1 °F 94.1 °F 70.0 °F 53% 29.87 in 10.0 mi WSW 13.8 mph 21.9 mph N/A   Partly Cloudy
10:51 AM 91.0 °F 96.6 °F 70.0 °F 50% 29.86 in 10.0 mi West 17.3 mph 24.2 mph N/A   Partly Cloudy
11:51 AM 93.0 °F 100.1 °F 71.1 °F 49% 29.83 in 10.0 mi WSW 19.6 mph 26.5 mph N/A   Partly Cloudy
12:51 PM 93.0 °F 99.0 °F 70.0 °F 47% 29.82 in 10.0 mi WSW 19.6 mph 32.2 mph N/A   Scattered Clouds
1:51 PM 93.9 °F 98.6 °F 68.0 °F 43% 29.80 in 10.0 mi West 19.6 mph 32.2 mph N/A   Scattered Clouds
2:51 PM 95.0 °F 99.0 °F 66.9 °F 40% 29.78 in 10.0 mi WSW 21.9 mph 32.2 mph N/A   Scattered Clouds
3:51 PM 95.0 °F 97.4 °F 64.9 °F 37% 29.76 in 10.0 mi West 24.2 mph 34.5 mph N/A   Scattered Clouds
4:51 PM 93.0 °F 95.9 °F 66.0 °F 41% 29.75 in 10.0 mi WSW 23.0 mph 31.1 mph N/A   Scattered Clouds
5:51 PM 93.0 °F 97.4 °F 68.0 °F 44% 29.75 in 10.0 mi West 21.9 mph 29.9 mph N/A   Scattered Clouds
6:51 PM 91.9 °F 96.9 °F 69.1 °F 47% 29.74 in 10.0 mi West 23.0 mph 29.9 mph N/A   Scattered Clouds
7:51 PM 89.1 °F 92.9 °F 68.0 °F 50% 29.75 in 10.0 mi WSW 11.5 mph 20.7 mph N/A   Scattered Clouds
8:45 PM 89.6 °F 94.7 °F 69.8 °F 52% 29.77 in 10.0 mi WSW 11.5 mph 20.7 mph N/A Thunderstorm Thunderstorm
8:51 PM 88.0 °F 92.1 °F 69.1 °F 53% 29.75 in 10.0 mi SW 10.4 mph - N/A Thunderstorm Thunderstorm
9:32 PM 73.4 °F - 68.0 °F 83% 29.84 in 2.0 mi NW 38.0 mph 55.2 mph 0.02 in Rain , Thunderstorm Thunderstorms and Rain
9:46 PM 71.6 °F - 69.8 °F 94% 29.86 in 3.0 mi NNW 25.3 mph 40.3 mph 0.29 in Rain , Thunderstorm Heavy Thunderstorms and Rain
9:51 PM 72.0 °F - 69.1 °F 91% 29.84 in 2.0 mi NNW 8.1 mph 34.5 mph 0.50 in Rain , Thunderstorm Heavy Thunderstorms and Rain
10:15 PM 73.4 °F - 69.8 °F 88% 29.82 in 10.0 mi South 6.9 mph - 0.06 in Thunderstorm Thunderstorm
10:51 PM 73.0 °F - 70.0 °F 90% 29.80 in 10.0 mi WSW 9.2 mph 17.3 mph 0.08 in Rain , Thunderstorm Light Thunderstorms and Rain
11:25 PM 73.4 °F - 69.8 °F 88% 29.81 in 10.0 mi WNW 6.9 mph - 0.00 in   Overcast
11:51 PM 73.9 °F - 70.0 °F 87% 29.78 in 10.0 mi WNW 3.5 mph - 0.00 in   Overcast